Time,TemperatureF,DewpointF,PressureIn,WindDirection,WindDirectionDegrees,WindSpeedMPH,WindSpeedGustMPH,Humidity,HourlyPrecipIn,Conditions,Clouds,dailyrainin,SolarRadiationWatts/m^2,SoftwareType,DateUTC
2013-06-29 00:11:00,70.0,53.0,-100.00,NW,314,3.0,8.0,55,0.00,,,0.00,0.000000,,2013-06-29 05:11:00,
2013-06-29 00:21:00,70.0,53.0,-100.00,NW,314,3.0,8.0,55,0.00,,,0.00,0.000000,,2013-06-29 05:21:00,
2013-06-29 00:31:00,70.0,53.0,-100.00,NW,314,3.0,8.0,55,0.00,,,0.00,0.000000,,2013-06-29 05:31:00,
2013-06-29 00:41:00,70.0,53.0,-100.00,NW,314,3.0,8.0,55,0.00,,,0.00,0.000000,,2013-06-29 05:41:00,
2013-06-29 01:12:00,69.0,55.0,-100.00,WNW,294,3.0,7.0,60,0.00,,,0.00,0.000000,,2013-06-29 06:12:00,
2013-06-29 01:22:00,69.0,55.0,-100.00,WNW,294,3.0,7.0,60,0.00,,,0.00,0.000000,,2013-06-29 06:22:00,
2013-06-29 01:33:00,69.0,55.0,-100.00,WNW,294,3.0,7.0,60,0.00,,,0.00,0.000000,,2013-06-29 06:33:00,
2013-06-29 01:43:00,69.0,55.0,-100.00,WNW,294,3.0,7.0,60,0.00,,,0.00,0.000000,,2013-06-29 06:43:00,
2013-06-29 02:12:00,68.0,54.0,-100.00,WNW,290,2.0,8.0,62,0.00,,,0.00,0.000000,,2013-06-29 07:12:00,
2013-06-29 02:22:00,68.0,54.0,-100.00,WNW,290,2.0,8.0,62,0.00,,,0.00,0.000000,,2013-06-29 07:22:00,
2013-06-29 02:33:00,68.0,54.0,-100.00,WNW,290,2.0,8.0,62,0.00,,,0.00,0.000000,,2013-06-29 07:33:00,
2013-06-29 02:43:00,68.0,54.0,-100.00,WNW,290,2.0,8.0,62,0.00,,,0.00,0.000000,,2013-06-29 07:43:00,
2013-06-29 03:12:00,68.0,54.0,-100.00,NW,305,3.0,10.0,62,0.00,,,0.00,0.000000,,2013-06-29 08:12:00,
2013-06-29 03:22:00,68.0,54.0,-100.00,NW,305,3.0,10.0,62,0.00,,,0.00,0.000000,,2013-06-29 08:22:00,
2013-06-29 03:33:00,68.0,54.0,-100.00,NW,305,3.0,10.0,62,0.00,,,0.00,0.000000,,2013-06-29 08:33:00,
2013-06-29 03:43:00,68.0,54.0,-100.00,NW,305,3.0,10.0,62,0.00,,,0.00,0.000000,,2013-06-29 08:43:00,
2013-06-29 04:12:00,67.0,55.0,-100.00,NW,305,4.0,9.0,65,0.00,,,0.00,0.000000,,2013-06-29 09:12:00,
2013-06-29 04:22:00,67.0,55.0,-100.00,NW,305,4.0,9.0,65,0.00,,,0.00,0.000000,,2013-06-29 09:22:00,
2013-06-29 04:33:00,67.0,55.0,-100.00,NW,305,4.0,9.0,65,0.00,,,0.00,0.000000,,2013-06-29 09:33:00,
2013-06-29 04:42:00,67.0,55.0,-100.00,NW,305,4.0,9.0,65,0.00,,,0.00,0.000000,,2013-06-29 09:42:00,
2013-06-29 05:11:00,65.0,55.0,-100.00,NW,307,3.0,10.0,69,0.00,,,0.00,0.000000,,2013-06-29 10:11:00,
2013-06-29 05:22:00,65.0,55.0,-100.00,NW,307,3.0,10.0,69,0.00,,,0.00,0.000000,,2013-06-29 10:22:00,
2013-06-29 05:33:00,65.0,55.0,-100.00,NW,307,3.0,10.0,69,0.00,,,0.00,0.000000,,2013-06-29 10:33:00,
2013-06-29 05:43:00,65.0,55.0,-100.00,NW,307,3.0,10.0,69,0.00,,,0.00,0.000000,,2013-06-29 10:43:00,
2013-06-29 06:11:00,64.0,56.0,-100.00,NW,320,3.0,8.0,74,0.00,,,0.00,0.000000,,2013-06-29 11:11:00,
2013-06-29 06:23:00,64.0,56.0,-100.00,NW,320,3.0,8.0,74,0.00,,,0.00,0.000000,,2013-06-29 11:23:00,
2013-06-29 06:33:00,64.0,56.0,-100.00,NW,320,3.0,8.0,74,0.00,,,0.00,0.000000,,2013-06-29 11:33:00,
2013-06-29 06:43:00,64.0,56.0,-100.00,NW,320,3.0,8.0,74,0.00,,,0.00,0.000000,,2013-06-29 11:43:00,
2013-06-29 07:12:00,64.0,56.0,-100.00,NW,320,4.0,11.0,76,0.00,,,0.00,14.000000,,2013-06-29 12:12:00,
2013-06-29 07:22:00,64.0,56.0,-100.00,NW,320,4.0,11.0,76,0.00,,,0.00,14.000000,,2013-06-29 12:22:00,
2013-06-29 07:34:00,64.0,56.0,-100.00,NW,320,4.0,11.0,76,0.00,,,0.00,14.000000,,2013-06-29 12:34:00,
2013-06-29 07:43:00,64.0,56.0,-100.00,NW,320,4.0,11.0,76,0.00,,,0.00,14.000000,,2013-06-29 12:43:00,
2013-06-29 08:11:00,69.0,58.0,-100.00,NW,309,6.0,12.0,68,0.00,,,0.00,135.000000,,2013-06-29 13:11:00,
2013-06-29 08:23:00,69.0,58.0,-100.00,NW,309,6.0,12.0,68,0.00,,,0.00,135.000000,,2013-06-29 13:23:00,
2013-06-29 08:34:00,69.0,58.0,-100.00,NW,309,6.0,12.0,68,0.00,,,0.00,135.000000,,2013-06-29 13:34:00,
2013-06-29 08:43:00,69.0,58.0,-100.00,NW,309,6.0,12.0,68,0.00,,,0.00,135.000000,,2013-06-29 13:43:00,
2013-06-29 09:12:00,72.0,58.0,-100.00,NW,318,7.0,13.0,62,0.00,,,0.00,325.000000,,2013-06-29 14:12:00,
2013-06-29 09:23:00,72.0,58.0,-100.00,NW,318,7.0,13.0,62,0.00,,,0.00,325.000000,,2013-06-29 14:23:00,
2013-06-29 09:34:00,72.0,58.0,-100.00,NW,318,7.0,13.0,62,0.00,,,0.00,325.000000,,2013-06-29 14:34:00,
2013-06-29 09:44:00,72.0,58.0,-100.00,NW,318,7.0,13.0,62,0.00,,,0.00,325.000000,,2013-06-29 14:44:00,
2013-06-29 10:11:00,75.0,60.0,-100.00,NW,314,8.0,19.0,59,0.00,,,0.00,533.000000,,2013-06-29 15:11:00,
2013-06-29 10:22:00,75.0,60.0,-100.00,NW,314,8.0,19.0,59,0.00,,,0.00,533.000000,,2013-06-29 15:22:00,
2013-06-29 10:33:00,75.0,60.0,-100.00,NW,314,8.0,19.0,59,0.00,,,0.00,533.000000,,2013-06-29 15:33:00,
2013-06-29 10:42:00,75.0,60.0,-100.00,NW,314,8.0,19.0,59,0.00,,,0.00,533.000000,,2013-06-29 15:42:00,
2013-06-29 11:12:00,77.0,58.0,-100.00,North,358,8.0,23.0,52,0.00,,,0.00,731.000000,,2013-06-29 16:12:00,
2013-06-29 11:22:00,77.0,58.0,-100.00,North,358,8.0,23.0,52,0.00,,,0.00,731.000000,,2013-06-29 16:22:00,
2013-06-29 11:33:00,77.0,58.0,-100.00,North,358,8.0,23.0,52,0.00,,,0.00,731.000000,,2013-06-29 16:33:00,
2013-06-29 11:43:00,77.0,58.0,-100.00,North,358,8.0,23.0,52,0.00,,,0.00,731.000000,,2013-06-29 16:43:00,
2013-06-29 12:12:00,79.0,58.0,-100.00,NNW,347,9.0,22.0,49,0.00,,,0.00,856.000000,,2013-06-29 17:12:00,
2013-06-29 12:22:00,79.0,58.0,-100.00,NNW,347,9.0,22.0,49,0.00,,,0.00,856.000000,,2013-06-29 17:22:00,
2013-06-29 12:34:00,79.0,58.0,-100.00,NNW,347,9.0,22.0,49,0.00,,,0.00,856.000000,,2013-06-29 17:34:00,
2013-06-29 12:42:00,79.0,58.0,-100.00,NNW,347,9.0,22.0,49,0.00,,,0.00,856.000000,,2013-06-29 17:42:00,
2013-06-29 13:12:00,77.0,56.0,-100.00,NNW,328,9.0,21.0,48,0.00,,,0.00,900.000000,,2013-06-29 18:12:00,
2013-06-29 13:22:00,77.0,56.0,-100.00,NNW,328,9.0,21.0,48,0.00,,,0.00,900.000000,,2013-06-29 18:22:00,
2013-06-29 13:34:00,77.0,56.0,-100.00,NNW,328,9.0,21.0,48,0.00,,,0.00,900.000000,,2013-06-29 18:34:00,
2013-06-29 13:43:00,77.0,56.0,-100.00,NNW,328,9.0,21.0,48,0.00,,,0.00,900.000000,,2013-06-29 18:43:00,
2013-06-29 14:12:00,80.0,57.0,-100.00,NNW,329,10.0,23.0,46,0.00,,,0.00,715.000000,,2013-06-29 19:12:00,
2013-06-29 14:22:00,80.0,57.0,-100.00,NNW,329,10.0,23.0,46,0.00,,,0.00,715.000000,,2013-06-29 19:22:00,
2013-06-29 14:34:00,80.0,57.0,-100.00,NNW,329,10.0,23.0,46,0.00,,,0.00,715.000000,,2013-06-29 19:34:00,
2013-06-29 14:43:00,80.0,57.0,-100.00,NNW,329,10.0,23.0,46,0.00,,,0.00,715.000000,,2013-06-29 19:43:00,
2013-06-29 15:11:00,81.0,56.0,-100.00,NNW,337,9.0,24.0,43,0.00,,,0.00,1028.000000,,2013-06-29 20:11:00,
2013-06-29 15:23:00,81.0,56.0,-100.00,NNW,337,9.0,24.0,43,0.00,,,0.00,1028.000000,,2013-06-29 20:23:00,
2013-06-29 15:33:00,81.0,56.0,-100.00,NNW,337,9.0,24.0,43,0.00,,,0.00,1028.000000,,2013-06-29 20:33:00,
2013-06-29 15:43:00,81.0,56.0,-100.00,NNW,337,9.0,24.0,43,0.00,,,0.00,1028.000000,,2013-06-29 20:43:00,
2013-06-29 16:11:00,79.0,58.0,-100.00,North,9,8.0,26.0,49,0.00,,,0.00,763.000000,,2013-06-29 21:11:00,
2013-06-29 16:22:00,79.0,58.0,-100.00,North,9,8.0,26.0,49,0.00,,,0.00,763.000000,,2013-06-29 21:22:00,
2013-06-29 16:32:00,79.0,58.0,-100.00,North,9,8.0,26.0,49,0.00,,,0.00,763.000000,,2013-06-29 21:32:00,
2013-06-29 16:42:00,79.0,58.0,-100.00,North,9,8.0,26.0,49,0.00,,,0.00,763.000000,,2013-06-29 21:42:00,
2013-06-29 17:11:00,80.0,55.0,-100.00,NNE,14,7.0,20.0,43,0.00,,,0.00,753.000000,,2013-06-29 22:11:00,
2013-06-29 17:21:00,80.0,55.0,-100.00,NNE,14,7.0,20.0,43,0.00,,,0.00,753.000000,,2013-06-29 22:21:00,
2013-06-29 17:33:00,80.0,55.0,-100.00,NNE,14,7.0,20.0,43,0.00,,,0.00,753.000000,,2013-06-29 22:33:00,
2013-06-29 17:43:00,80.0,55.0,-100.00,NNE,14,7.0,20.0,43,0.00,,,0.00,753.000000,,2013-06-29 22:43:00,
2013-06-29 18:12:00,76.0,58.0,-100.00,NE,34,6.0,18.0,54,0.00,,,0.00,344.000000,,2013-06-29 23:12:00,
2013-06-29 18:23:00,76.0,58.0,-100.00,NE,34,6.0,18.0,54,0.00,,,0.00,344.000000,,2013-06-29 23:23:00,
2013-06-29 18:34:00,76.0,58.0,-100.00,NE,34,6.0,18.0,54,0.00,,,0.00,344.000000,,2013-06-29 23:34:00,
2013-06-29 18:43:00,76.0,58.0,-100.00,NE,34,6.0,18.0,54,0.00,,,0.00,344.000000,,2013-06-29 23:43:00,
2013-06-29 19:12:00,79.0,56.0,-100.00,NNE,23,5.0,14.0,45,0.00,,,0.00,553.000000,,2013-06-30 00:12:00,
2013-06-29 19:22:00,79.0,56.0,-100.00,NNE,23,5.0,14.0,45,0.00,,,0.00,553.000000,,2013-06-30 00:22:00,
2013-06-29 19:33:00,79.0,56.0,-100.00,NNE,23,5.0,14.0,45,0.00,,,0.00,553.000000,,2013-06-30 00:33:00,
2013-06-29 19:43:00,79.0,56.0,-100.00,NNE,23,5.0,14.0,45,0.00,,,0.00,553.000000,,2013-06-30 00:43:00,
2013-06-29 20:11:00,77.0,55.0,-100.00,NNE,25,3.0,15.0,46,0.00,,,0.00,283.000000,,2013-06-30 01:11:00,
2013-06-29 20:22:00,77.0,55.0,-100.00,NNE,25,3.0,15.0,46,0.00,,,0.00,283.000000,,2013-06-30 01:22:00,
2013-06-29 20:33:00,77.0,55.0,-100.00,NNE,25,3.0,15.0,46,0.00,,,0.00,283.000000,,2013-06-30 01:33:00,
2013-06-29 20:44:00,77.0,55.0,-100.00,NNE,25,3.0,15.0,46,0.00,,,0.00,283.000000,,2013-06-30 01:44:00,
2013-06-29 21:11:00,71.0,57.0,-100.00,ESE,119,0.0,10.0,62,0.00,,,-99.99,76.000000,,2013-06-30 02:11:00,
2013-06-29 21:23:00,71.0,57.0,-100.00,ESE,119,0.0,10.0,62,0.00,,,-99.99,76.000000,,2013-06-30 02:23:00,
2013-06-29 21:33:00,71.0,57.0,-100.00,ESE,119,0.0,10.0,62,0.00,,,-99.99,76.000000,,2013-06-30 02:33:00,
2013-06-29 21:43:00,71.0,57.0,-100.00,ESE,119,0.0,10.0,62,0.00,,,-99.99,76.000000,,2013-06-30 02:43:00,
2013-06-29 22:12:00,66.0,57.0,-100.00,NW,304,1.0,3.0,72,0.00,,,0.00,3.000000,,2013-06-30 03:12:00,
2013-06-29 22:23:00,66.0,57.0,-100.00,NW,304,1.0,3.0,72,0.00,,,0.00,3.000000,,2013-06-30 03:23:00,
2013-06-29 22:33:00,66.0,57.0,-100.00,NW,304,1.0,3.0,72,0.00,,,0.00,3.000000,,2013-06-30 03:33:00,
2013-06-29 22:43:00,66.0,57.0,-100.00,NW,304,1.0,3.0,72,0.00,,,0.00,3.000000,,2013-06-30 03:43:00,
2013-06-29 23:12:00,66.0,58.0,-100.00,NE,51,1.0,5.0,76,0.00,,,0.00,0.000000,,2013-06-30 04:12:00,
2013-06-29 23:22:00,66.0,58.0,-100.00,NE,51,1.0,5.0,76,0.00,,,0.00,0.000000,,2013-06-30 04:22:00,
2013-06-29 23:33:00,66.0,58.0,-100.00,NE,51,1.0,5.0,76,0.00,,,0.00,0.000000,,2013-06-30 04:33:00,
2013-06-29 23:43:00,66.0,58.0,-100.00,NE,51,1.0,5.0,76,0.00,,,0.00,0.000000,,2013-06-30 04:43:00,